Overview Statistics Trail Chart Weather Telemetry Raw packets
 

This is the latest recevied weather packets stored in our database for station/object KF7SOJ. If no packets are shown the sender has not sent any weather packets the latest 10 day(s).

<< 1 2 3 4 >>
Time Temp. Humidity Pressure Rain* Wind** Luminosity Snow
1788625619 21.67° C 34% 934.8 hPa 0 mm - 585 W/m² -
1788625318 21.67° C 34% 934.4 hPa 0 mm - 571 W/m² -
1788625014 21.67° C 35% 934.4 hPa 0 mm - 553 W/m² -
1788624711 21.67° C 34% 934.3 hPa 0 mm - 538 W/m² -
1788624411 21.11° C 35% 934.3 hPa 0 mm - 524 W/m² -
1788624110 21.11° C 36% 934.4 hPa 0 mm - 507 W/m² -
1788623810 21.11° C 35% 934.6 hPa 0 mm - 493 W/m² -
1788623509 21.11° C 35% 934.4 hPa 0 mm - 478 W/m² -
1788623203 20.56° C 35% 934.6 hPa 0 mm - 461 W/m² -
1788622899 20.56° C 35% 934.6 hPa 0 mm - 433 W/m² -
1788622595 20.56° C 36% 934.4 hPa 0 mm - 403 W/m² -
1788622290 20.56° C 36% 934.6 hPa 0 mm - 403 W/m² -
1788621985 20.56° C 36% 934.6 hPa 0 mm - 357 W/m² -
1788621680 20.56° C 36% 934.7 hPa 0 mm - 357 W/m² -
1788621374 20.56° C 36% 934.6 hPa 0 mm - 357 W/m² -
1788621070 20° C 37% 934.6 hPa 0 mm - 319 W/m² -
1788620766 20° C 37% 934.6 hPa 0 mm - 319 W/m² -
1788620464 20° C 37% 934.6 hPa 0 mm - 147 W/m² -
1788620162 20° C 37% 934.6 hPa 0 mm - 147 W/m² -
1788619862 20° C 37% 934.7 hPa 0 mm - 147 W/m² -
1788619557 20° C 37% 934.3 hPa 0 mm - 147 W/m² -
1788619256 20° C 37% 934.6 hPa 0 mm - 147 W/m² -
1788618955 18.89° C 40% 934.4 hPa 0 mm - 182 W/m² -
1788618651 18.89° C 40% 934.3 hPa 0 mm - 182 W/m² -
1788618350 17.78° C 42% 934.2 hPa 0 mm - 234 W/m² -

* Rain latest hour (hover to see other rain measurements)
** Current wind speed in m/s (hover to see current wind gust speed)